Regional Weather Roundup
Issued by NWS

Home | Current Version | Previous Version | Graphics & Text | Print | Product List | Glossary On
Versions: 1 2 3 4 5 6 7 8 9 10 11 12 13 14 15 16 17 18 19 20 21 22 23 24 25 26 27 28 29 30 31 32 33 34 35 36 37 38 39 40 41 42 43 44 45 46 47 48 49 50
669
ASUS44 KLIX 261310
RWRLA
LOUISIANA WEATHER ROUNDUP
NATIONAL WEATHER SERVICE NEW ORLEANS LA
700 AM CST MON JAN 26 2015

NOTE: "FAIR" INDICATES FEW OR NO CLOUDS BELOW 12,000 FEET WITH NO
      SIGNIFICANT WEATHER AND/OR OBSTRUCTIONS TO VISIBILITY.
      SKY/WX - SKY CONDITION AND SIGNIFICANT WEATHER.
      TMP - AIR TEMPERATURE.    DP   - DEWPOINT TEMPERATURE.
      RH  - RELATIVE HUMIDITY.  PRES - PRESSURE.
      HX  - HEAT INDEX.         WCI  - WIND CHILL INDEX.

*  THESE STATIONS ARE NOT NWS OR FAA STATIONS AND ARE NOT UNDER
   NWS QUALITY CONTROL.

LAZ040-048-061>063-065-066-069-261400-
SOUTHEAST LOUISIANA

CITY           SKY/WX    TMP DP  RH WIND       PRES   REMARKS
N.O. AUDUBON   NOT AVBL
N.O. INTL ARPT PTCLDY    48  35  60 NW10      30.10R
N.O. LAKEFRONT CLEAR     51  37  58 N16       30.10R
N.O. DOWNTOWN* FAIR      50  34  53 N6        30.10R
SLIDELL        CLEAR     42  34  73 NW5       30.08R
BATON ROUGE    CLEAR     46  32  58 NW6       30.12R
BOOTHVILLE     CLEAR     50  38  63 NW13      30.09R
BELLE CHASSE   PTCLDY    49  33  54 CALM      30.10R
BOGALUSA*        N/A     43  34  69 NW3       30.09R
GALLIANO*      SUNNY     44  36  73 MISG      30.11R
NEW ROADS*     FAIR      44  33  66 NW7       30.14R
GONZALES*      FAIR      45  34  64 NW6       30.12R
HAMMOND*       CLEAR     45  32  61 NW6       30.11R
HOUMA*         NOT AVBL
PORT FOURCHON* SUNNY     50  39  66 NW7       30.14R

$$

LAZ041-044-053-054-261400-
SOUTHWEST LOUISIANA

CITY           SKY/WX    TMP DP  RH WIND       PRES   REMARKS
LAKE CHARLES   CLEAR     47  32  56 N12       30.17R
LAFAYETTE      CLEAR     45  33  63 N8        30.15R
PATTERSON      CLEAR     48  32  53 N8        30.13R
SALT POINT       N/A     47  35  63 VRB5      30.12R
NEW IBERIA     CLEAR     45  34  65 N8        30.15R
CHENAULT AIRPK NOT AVBL

$$

LAZ027-028-261400-
CENTRAL LOUISIANA

CITY           SKY/WX    TMP DP  RH WIND       PRES   REMARKS
FORT POLK      CLEAR     41  33  72 N8        30.17R
ALEXANDRIA INT CLEAR     40  33  76 NW5       30.15R
ALEXANDRIA     CLEAR     40  32  73 NW3       30.16R

$$

LAZ001-002-261400-
NORTHWEST LOUISIANA

CITY           SKY/WX    TMP DP  RH WIND       PRES   REMARKS
SHREVEPORT     CLEAR     39  32  76 NW5       30.17R
BARKSDALE AFB  CLEAR     37  31  77 N5        30.18R WCI  34
DTN SHREVEPORT CLEAR     40  31  70 NW8       30.18R WCI  34

$$

LAZ014-016-261400-
NORTHEAST LOUISIANA

CITY           SKY/WX    TMP DP  RH WIND       PRES   REMARKS
MONROE         CLEAR     39  32  76 NW7       30.16R WCI  34
TALLULAH       CLOUDY    45  34  65 N10       30.12R

$$




USA.gov is the U.S. government's official web portal to all federal, state and local government web resources and services.